Location: �perlecques
(50.8057°N, 2.1521°E)
Time: 20:54:44
(UTC+00:00)

Tiros 1 - Pass Details

Date: 12 August 2021
Orbit: 630 x 663 km, 48.4° (Epoch: 28 September)

Event Time Altitude Azimuth Distance (km) Brightness Sun altitude
Rises 12:36:51 0° 192° (SSW) 2,981 11.1 53.1°
Reaches altitude 10° 12:40:22 10° 165° (SSE) 2,075 10.4 52.9°
Maximum altitude 12:42:36 13° 137° (SE) 1,868 10.0 52.8°
Drops below altitude 10° 12:44:50 10° 109° (ESE) 2,080 9.9 52.7°
Sets 12:48:21 0° 83° (E) 2,994 10.4 52.5°
